Tracking 17558 objects as of 14-February-2016
HD Live streaming from Space Station
objects crossing your sky now

BONUM 1

Track BONUM 1 now!
BONUM 1 is classified as:


NORAD ID: 25546
Int'l Code: 1998-068A
Perigee: 36,124.8 km
Apogee: 36,162.5 km
Inclination: 3.3 °
Period: 1,454.0 minutes
Semi major axis: 42514 km
RCS: 0.003 m2 (small)
Launch date: November 22, 1998
Source: Commonwealth of Independent States (former USSR) (CIS)
Launch site: AIR FORCE EASTERN TEST RANGE (AFETR)

Television broadcasting; 8 Ku-band, Siberia or Europe, selected.
Your satellite tracking list
Your tracking list is empty





NASA's NSSDC Master Catalog

Two Line Element Set (TLE):
1 25546U 98068A   16044.01635581 -.00000101  00000-0  00000+0 0  9999
2 25546   3.2758  69.8253 0004434 246.9332 113.2726  0.99036427 6312
Source of the keplerian elements: AFSPC

N2YO: 383